Bullhead City, AZ

2:51 PM MST on January 17, 2017 (GMT -0700)
Laughlin-Bullhead International

Weather History for KIFP - January, 2013

Change the Weather History Date:

Saturday, January 19, 2013

  Actual Average Record
Temperature  
Mean Temperature 58 °F -  
Max Temperature 66 °F 64 °F 78 °F (2000)
Min Temperature 50 °F 46 °F 35 °F (2001)
Degree Days  
Heating Degree Days 7    
Growing Degree Days 8 (Base 50)    
Moisture  
Dew Point 16 °F    
Average Humidity 20    
Maximum Humidity 28    
Minimum Humidity 13    
Precipitation  
Precipitation 0.00 in - - ()
Sea Level Pressure  
Sea Level Pressure 30.24 in    
Wind  
Wind Speed 23 mph (North)    
Max Wind Speed 31 mph    
Max Gust Speed 39 mph    
Visibility 10 miles    
Events      
Averages and records for this station are not official NWS values.
T = Trace of Precipitation, MM = Missing Value Source: NWS Daily Summary

Daily Weather History Graph

Daily Weather History Graph

Search for Another Location

Airport or City:

Trip Planner

Search our weather history database for the weather conditions in past years. The results will help you decide how hot, cold, wet, or windy it might be!

Date:

Astronomy

Jan. 19, 2013 Rise Set
Actual Time 7:44 AM MST 5:53 PM MST
Civil Twilight 7:17 AM MST 6:21 PM MST
Nautical Twilight 6:46 AM MST 6:52 PM MST
Astronomical Twilight 6:16 AM MST 7:22 PM MST
Moon 12:19 PM MST (1/19) 1:26 AM MST (1/19)
Length of Visible Light 11h 03m
Length of Day
10h 09m
First Quarter, 58% of the Moon is Illuminated
Jan 19
First Quarter
Jan 26
Full
Feb 3
Last Quarter
Feb 10
New
Feb 17
First Quarter

Hourly Weather History & Observations

Time (MST) Temp. Dew Point Humidity Pressure Visibility Wind Dir Wind Speed Gust Speed Precip Events Conditions
12:15 AM 57.2 °F 15.8 °F 20% 30.21 in 10.0 mi North 24.2 mph - N/A   Clear
12:35 AM 57.2 °F 15.8 °F 20% 30.21 in 10.0 mi NNE 23.0 mph 28.8 mph N/A   Clear
12:55 AM 57.2 °F 15.8 °F 20% 30.21 in 10.0 mi North 24.2 mph 28.8 mph N/A   Clear
1:15 AM 57.2 °F 15.8 °F 20% 30.22 in 10.0 mi North 23.0 mph 31.1 mph N/A   Clear
1:35 AM 55.4 °F 17.6 °F 23% 30.22 in 10.0 mi NNE 20.7 mph 26.5 mph N/A   Clear
1:55 AM 55.4 °F 17.6 °F 23% 30.22 in 10.0 mi NNE 21.9 mph 27.6 mph N/A   Clear
2:15 AM 55.4 °F 17.6 °F 23% 30.22 in 10.0 mi NNE 25.3 mph 31.1 mph N/A   Clear
2:35 AM 55.4 °F 17.6 °F 23% 30.22 in 10.0 mi NNE 26.5 mph - N/A   Clear
2:55 AM 55.4 °F 17.6 °F 23% 30.23 in 10.0 mi NNE 23.0 mph 28.8 mph N/A   Clear
3:15 AM 53.6 °F 17.6 °F 24% 30.23 in 10.0 mi NNE 24.2 mph - N/A   Clear
3:35 AM 53.6 °F 17.6 °F 24% 30.23 in 10.0 mi NNE 25.3 mph - N/A   Clear
3:55 AM 53.6 °F 17.6 °F 24% 30.23 in 10.0 mi North 26.5 mph 32.2 mph N/A   Clear
4:15 AM 53.6 °F 17.6 °F 24% 30.23 in 10.0 mi North 24.2 mph 31.1 mph N/A   Clear
4:35 AM 53.6 °F 17.6 °F 24% 30.24 in 10.0 mi NNE 21.9 mph 28.8 mph N/A   Clear
4:55 AM 51.8 °F 17.6 °F 26% 30.24 in 10.0 mi NNE 20.7 mph 26.5 mph N/A   Clear
5:15 AM 51.8 °F 17.6 °F 26% 30.24 in 10.0 mi NNE 19.6 mph 25.3 mph N/A   Clear
5:35 AM 51.8 °F 17.6 °F 26% 30.23 in 10.0 mi NNE 23.0 mph 28.8 mph N/A   Clear
5:55 AM 51.8 °F 17.6 °F 26% 30.23 in 10.0 mi NNE 28.8 mph 32.2 mph N/A   Clear
6:15 AM 50.0 °F 17.6 °F 28% 30.24 in 10.0 mi NNE 27.6 mph 32.2 mph N/A   Clear
6:35 AM 50.0 °F 17.6 °F 28% 30.24 in 10.0 mi NNE 31.1 mph 36.8 mph N/A   Clear
6:55 AM 50.0 °F 17.6 °F 28% 30.26 in 10.0 mi NNE 24.2 mph 31.1 mph N/A   Clear
7:15 AM 50.0 °F 17.6 °F 28% 30.27 in 10.0 mi North 26.5 mph 32.2 mph N/A   Clear
7:35 AM 50.0 °F 17.6 °F 28% 30.28 in 10.0 mi North 20.7 mph 33.4 mph N/A   Clear
7:55 AM 50.0 °F 17.6 °F 28% 30.28 in 10.0 mi North 26.5 mph - N/A   Clear
8:35 AM 50.0 °F 15.8 °F 26% 30.30 in 10.0 mi North 23.0 mph 29.9 mph N/A   Clear
8:55 AM 50.0 °F 17.6 °F 28% 30.30 in 10.0 mi NNE 20.7 mph 27.6 mph N/A   Clear
9:15 AM 51.8 °F 17.6 °F 26% 30.31 in 10.0 mi NNE 23.0 mph - N/A   Clear
9:35 AM 51.8 °F 17.6 °F 26% 30.30 in 10.0 mi NNE 26.5 mph 29.9 mph N/A   Clear
9:55 AM 53.6 °F 17.6 °F 24% 30.31 in 10.0 mi North 27.6 mph 34.5 mph N/A   Clear
10:15 AM 53.6 °F 17.6 °F 24% 30.32 in 10.0 mi North 24.2 mph - N/A   Clear
10:35 AM 55.4 °F 17.6 °F 23% 30.33 in 10.0 mi North 21.9 mph 31.1 mph N/A   Clear
10:55 AM 57.2 °F 17.6 °F 21% 30.33 in 10.0 mi North 24.2 mph 29.9 mph N/A   Clear
11:15 AM 57.2 °F 17.6 °F 21% 30.32 in 10.0 mi North 28.8 mph 32.2 mph N/A   Clear
11:35 AM 59.0 °F 15.8 °F 19% 30.30 in 10.0 mi North 29.9 mph 34.5 mph N/A   Clear
11:55 AM 59.0 °F 15.8 °F 19% 30.29 in 10.0 mi North 27.6 mph 39.1 mph N/A   Clear
12:15 PM 59.0 °F 15.8 °F 19% 30.28 in 10.0 mi North 26.5 mph 39.1 mph N/A   Clear
12:35 PM 59.0 °F 15.8 °F 19% 30.26 in 10.0 mi North 28.8 mph 38.0 mph N/A   Clear
12:55 PM 60.8 °F 15.8 °F 17% 30.25 in 10.0 mi North 25.3 mph 36.8 mph N/A   Clear
1:15 PM 62.6 °F 17.6 °F 18% 30.24 in 10.0 mi North 31.1 mph 38.0 mph N/A   Clear
1:35 PM 62.6 °F 15.8 °F 16% 30.23 in 10.0 mi North 27.6 mph 34.5 mph N/A   Clear
1:55 PM 62.6 °F 15.8 °F 16% 30.22 in 10.0 mi North 27.6 mph 32.2 mph N/A   Clear
2:15 PM 62.6 °F 15.8 °F 16% 30.22 in 10.0 mi North 28.8 mph 34.5 mph N/A   Clear
2:35 PM 64.4 °F 15.8 °F 15% 30.21 in 10.0 mi North 28.8 mph 33.4 mph N/A   Clear
2:55 PM 64.4 °F 15.8 °F 15% 30.21 in 10.0 mi North 24.2 mph 34.5 mph N/A   Clear
3:15 PM 64.4 °F 15.8 °F 15% 30.21 in 10.0 mi North 24.2 mph 32.2 mph N/A   Clear
3:35 PM 64.4 °F 14.0 °F 14% 30.20 in 10.0 mi North 24.2 mph 31.1 mph N/A   Clear
3:55 PM 66.2 °F 14.0 °F 13% 30.20 in 10.0 mi North 20.7 mph 29.9 mph N/A   Clear
4:15 PM 64.4 °F 14.0 °F 14% 30.19 in 10.0 mi North 23.0 mph 29.9 mph N/A   Clear
4:35 PM 64.4 °F 14.0 °F 14% 30.19 in 10.0 mi North 20.7 mph 29.9 mph N/A   Clear
4:55 PM 64.4 °F 14.0 °F 14% 30.18 in 10.0 mi North 24.2 mph 32.2 mph N/A   Clear
5:15 PM 64.4 °F 14.0 °F 14% 30.18 in 10.0 mi North 21.9 mph 28.8 mph N/A   Clear
5:35 PM 64.4 °F 14.0 °F 14% 30.19 in 10.0 mi North 20.7 mph 29.9 mph N/A   Clear
5:55 PM 62.6 °F 15.8 °F 16% 30.19 in 10.0 mi North 17.3 mph - N/A   Clear
6:15 PM 62.6 °F 15.8 °F 16% 30.20 in 10.0 mi North 16.1 mph - N/A   Clear
6:35 PM 62.6 °F 15.8 °F 16% 30.20 in 10.0 mi NNE 13.8 mph - N/A   Clear
6:55 PM 62.6 °F 15.8 °F 16% 30.20 in 10.0 mi North 15.0 mph - N/A   Clear
7:15 PM 62.6 °F 15.8 °F 16% 30.20 in 10.0 mi NNE 16.1 mph - N/A   Clear
7:55 PM 59.0 °F 14.0 °F 17% 30.21 in 10.0 mi NNE 15.0 mph - N/A   Clear
8:15 PM 59.0 °F 14.0 °F 17% 30.21 in 10.0 mi NNE 13.8 mph - N/A   Clear
8:35 PM 59.0 °F 14.0 °F 17% 30.22 in 10.0 mi NNE 12.7 mph - N/A   Clear
8:55 PM 59.0 °F 14.0 °F 17% 30.22 in 10.0 mi NNE 13.8 mph - N/A   Clear
9:15 PM 59.0 °F 14.0 °F 17% 30.22 in 10.0 mi NNE 15.0 mph - N/A   Clear
9:35 PM 59.0 °F 14.0 °F 17% 30.22 in 10.0 mi NNE 12.7 mph - N/A   Clear
9:55 PM 57.2 °F 14.0 °F 18% 30.22 in 10.0 mi NNE 10.4 mph - N/A   Clear
10:15 PM 57.2 °F 14.0 °F 18% 30.23 in 10.0 mi NNE 10.4 mph - N/A   Clear
10:35 PM 57.2 °F 14.0 °F 18% 30.23 in 10.0 mi NNE 11.5 mph - N/A   Clear
10:55 PM 57.2 °F 14.0 °F 18% 30.23 in 10.0 mi NNE 11.5 mph - N/A   Clear
11:15 PM 57.2 °F 14.0 °F 18% 30.23 in 10.0 mi North 12.7 mph - N/A   Clear
11:35 PM 57.2 °F 14.0 °F 18% 30.22 in 10.0 mi North 10.4 mph - N/A   Clear
11:55 PM 57.2 °F 14.0 °F 18% 30.22 in 10.0 mi NNE 10.4 mph - N/A   Clear